Weather History for Carlsbad, NM

Change the Weather History Date:

Thursday, February 7, 2013

  Actual Average Record
Temperature  
Mean Temperature 53 °F -  
Max Temperature 64 °F 59 °F 81 °F (1963)
Min Temperature 42 °F 28 °F 13 °F (1964)
Degree Days  
Heating Degree Days 12    
Growing Degree Days 3 (Base 50)    
Moisture  
Dew Point 23 °F    
Average Humidity 30    
Maximum Humidity 45    
Minimum Humidity 18    
Precipitation  
Precipitation 0.00 in - - ()
Sea Level Pressure  
Sea Level Pressure 29.98 in    
Wind  
Wind Speed 9 mph (NNW)    
Max Wind Speed 16 mph    
Max Gust Speed 16 mph    
Visibility 10 miles    
Events      
Averages and records for this station are not official NWS values.
T = Trace of Precipitation, MM = Missing Value Source: NWS Daily Summary

Daily Weather History Graph

Daily Weather History Graph

Search for Another Location

Airport:

Trip Planner

Search our weather history database for the weather conditions in past years. The results will help you decide how hot, cold, wet, or windy it might be!

Date:

Astronomy

Feb. 07, 2013 Rise Set
Actual Time 6:46 AM MST 5:36 PM MST
Civil Twilight 6:21 AM MST 6:01 PM MST
Nautical Twilight 5:52 AM MST 6:30 PM MST
Astronomical Twilight 5:23 AM MST 6:59 PM MST
Moon 4:22 AM MST (2/7) 3:07 PM MST (2/7)
Length of Visible Light 11h 40m
Length of Day
10h 49m
Waning Crescent, 8% of the Moon is Illuminated
Feb 7
Waning Crescent
Feb 10
New
Feb 17
First Quarter
Feb 25
Full
Mar 4
Last Quarter

Hourly Weather History & Observations

Time (MST) Temp. Dew Point Humidity Pressure Visibility Wind Dir Wind Speed Gust Speed Precip Events Conditions
12:53 AM 53.1 °F 25.0 °F 34% 29.80 in 10.0 mi West 10.4 mph 16.1 mph N/A   Clear
1:53 AM 55.0 °F 26.1 °F 33% 29.78 in 10.0 mi SSW 13.8 mph - N/A   Clear
2:53 AM 54.0 °F 26.1 °F 34% 29.81 in 10.0 mi West 12.7 mph - N/A   Clear
3:53 AM 54.0 °F 26.1 °F 34% 29.83 in 10.0 mi WNW 16.1 mph - N/A   Clear
4:53 AM 52.0 °F 26.1 °F 37% 29.86 in 10.0 mi WNW 13.8 mph - N/A   Clear
5:53 AM 48.9 °F 26.1 °F 41% 29.91 in 10.0 mi West 8.1 mph - N/A   Overcast
6:53 AM 46.9 °F 26.1 °F 44% 29.97 in 10.0 mi NNW 9.2 mph - N/A   Overcast
7:53 AM 52.0 °F 24.1 °F 34% 29.99 in 10.0 mi NNW 13.8 mph - N/A   Clear
8:53 AM 55.0 °F 23.0 °F 29% 30.02 in 10.0 mi North 12.7 mph - N/A   Clear
9:53 AM 57.9 °F 21.0 °F 24% 30.04 in 10.0 mi North 13.8 mph - N/A   Clear
10:53 AM 60.1 °F 21.9 °F 23% 30.04 in 10.0 mi NNE 10.4 mph - N/A   Clear
11:53 AM 60.1 °F 21.9 °F 23% 30.04 in 10.0 mi NNE 4.6 mph - N/A   Clear
12:53 PM 62.1 °F 21.0 °F 21% 30.01 in 10.0 mi NNW 8.1 mph - N/A   Clear
1:53 PM 64.0 °F 21.0 °F 19% 29.98 in 10.0 mi NNE 9.2 mph - N/A   Clear
2:53 PM 64.9 °F 21.0 °F 19% 29.97 in 10.0 mi North 6.9 mph - N/A   Clear
3:53 PM 64.9 °F 19.9 °F 18% 29.97 in 10.0 mi Calm Calm - N/A   Clear
4:53 PM 64.0 °F 19.9 °F 18% 29.99 in 10.0 mi Calm Calm - N/A   Clear
5:53 PM 57.9 °F 19.9 °F 23% 30.02 in 10.0 mi ENE 5.8 mph - N/A   Clear
6:53 PM 55.9 °F 21.0 °F 26% 30.04 in 10.0 mi ENE 5.8 mph - N/A   Clear
7:53 PM 52.0 °F 21.9 °F 31% 30.08 in 10.0 mi NE 4.6 mph - N/A   Clear
8:53 PM 46.9 °F 21.9 °F 37% 30.10 in 10.0 mi Calm Calm - N/A   Clear
9:53 PM 48.0 °F 21.9 °F 36% 30.11 in 10.0 mi Calm Calm - N/A   Clear
10:53 PM 42.1 °F 21.9 °F 45% 30.13 in 10.0 mi Calm Calm - N/A   Clear
11:53 PM 46.0 °F 21.0 °F 37% 30.13 in 10.0 mi Calm Calm - N/A   Clear